User: anonymous   Login
Location: eljas
(40.1958°N, 6.8661°W)
Time: 21:41:23
(UTC+02:00)
Language:

Okean O Rocket - Orbit

View from above orbital plane
View from above orbital plane
View from above satellite
View from above satellite

Ground track
Ground track

The orbit data is extracted from the following two-line orbital elements,

1 25861U 99039B   18109.01179035  .00000026  00000-0  11071-4 0  9999
2 25861  98.1475  88.1239 0015800 172.8044 227.9741 14.78472290 10961
Epoch (UTC): 19 April 2018 00:16:58
Eccentricity: 0.0015800
inclination: 98.1475°
perigee height: 623 km
apogee height: 645 km
right ascension of ascending node: 88.1239°
argument of perigee: 172.8044°
revolutions per day: 14.78472290
mean anomaly at epoch: 227.9741°
orbit number at epoch: 1096

The dashed part of the orbit path shows where the satellite is in the earth's shadow,  

DLR